Powrót do katalogu

STARLINK-36741

AktywnyŁącznośćSSO
NORAD 67727·PAYLOAD·🇺🇸 United States

Wystrzelony Feb 11, 2026 z Vandenberg Space Force Base

Loading…

Następne Przeloty (najbliższe 24 godziny)

TLE

ŚwieżeSource: CelesTrak SupGP

Epoka: Sep 14, 2026, 21:23 UTC

1 67727C 26026G   26257.89145833 -.00010695  00000+0 -33207-3 0  2575
2 67727  97.2846 309.7672 0000924  89.6217  95.1826 15.33437311    12

Śledź STARLINK-36741 w czasie rzeczywistym z AllMySat

Download on the App Store